• Join FlightAware (Why Join?)
  • Login
  • US Flag 
05:09PM EST


 

Airport Tracker/Info


-or-


 

Live Flight TrackerFlight Track Log ✈ SKW2982 ✈ 2013년 May 7일 ✈ KFAT - KPHX

Flight Track Log - Related Links

Times and Time Zones

All times are in EDT time to prevent confusion due to time zone crossing. See the SKW2982 flight status page for this flight to view local times or setup timezone preferences in your user account.

Time Position Orientation Groundspeed Altitude Reporting Facility
EDT Latitude Longitude Course Direction KTS MPH feet Rate Location/Type
07:20PM 36.7961 -119.7575 33° Northeast 165 190 2,300  Level Oakland Center
07:21PM 36.8306 -119.7294 33° Northeast 205 236 4,600 2,557 Climbing Oakland Center
07:22PM 36.7981 -119.6536 118° Southeast 253 291 7,500 2,754 Climbing Oakland Center
07:23PM 36.7492 -119.5792 129° Southeast 280 322 10,200 2,488 Climbing Oakland Center
07:24PM 36.6683 -119.5481 163° South 303 349 12,600 2,341 Climbing Oakland Center
07:25PM 36.5828 -119.5144 162° South 320 368 15,000 2,311 Climbing Oakland Center
07:26PM 36.4953 -119.4803 163° South 328 377 17,300 2,164 Climbing Oakland Center
07:27PM 36.3869 -119.4383 163° South 340 391 19,400 1,756 Climbing Oakland Center
07:28PM 36.2917 -119.4011 163° South 359 413 20,900 1,463 Climbing Oakland Center
07:29PM 36.1931 -119.3650 164° South 368 423 22,400 1,475 Climbing Oakland Center
07:30PM 36.0922 -119.3253 162° South 379 436 23,900 1,475 Climbing Oakland Center
07:31PM 36.0003 -119.2639 152° Southeast 375 432 25,400 1,024 Climbing Oakland Center
07:32PM 35.9194 -119.1808 140° Southeast 379 436 26,000 293 Climbing Oakland Center
07:33PM 35.8322 -119.0814 137° Southeast 411 473 26,000 590 Level Oakland Center
07:34PM 35.7336 -118.9867 142° Southeast 441 507 27,200 1,300 Climbing Oakland Center
07:35PM 35.6217 -118.9300 158° South 427 491 28,600 1,250 Climbing Los Angeles Center
07:36PM 35.5144 -118.8728 157° South 420 483 29,700 823 Climbing Los Angeles Center
07:37PM 35.4053 -118.8172 157° South 421 484 30,300 528 Climbing Los Angeles Center
07:38PM 35.2942 -118.7603 157° South 430 495 30,800 634 Climbing Los Angeles Center
07:39PM 35.1578 -118.6903 157° South 439 505 31,600 732 Climbing Los Angeles Center
07:40PM 35.0450 -118.6294 156° South 442 509 32,300 677 Climbing Los Angeles Center
07:41PM 34.9508 -118.5239 137° Southeast 460 529 33,000 339 Climbing Los Angeles Center
07:42PM 34.8608 -118.3947 130° Southeast 478 550 33,000  Level Los Angeles Center
07:43PM 34.7736 -118.2700 130° Southeast 487 560 33,000  Level Los Angeles Center
07:44PM 34.6903 -118.1297 126° Southeast 513 590 33,000  Level Los Angeles Center
07:45PM 34.6525 -117.9622 105° East 526 605 33,000  Level Los Angeles Center
07:46PM 34.6625 -117.7836 86° East 534 615 33,000  Level Los Angeles Center
07:47PM 34.6847 -117.5731 83° East 533 613 33,000  Level Los Angeles Center
07:48PM 34.7036 -117.3972 83° East 532 612 33,000  Level Los Angeles Center
07:49PM 34.7203 -117.2236 83° East 527 606 33,000  Level Los Angeles Center
07:50PM 34.7381 -117.0500 83° East 524 603 33,000  Level Los Angeles Center
07:51PM 34.7589 -116.8414 83° East 523 602 33,000  Level Los Angeles Center
07:53PM 34.7767 -116.6683 83° East 519 597 33,000  Level Los Angeles Center
07:54PM 34.7931 -116.4961 83° East 516 594 33,000  Level Los Angeles Center
07:55PM 34.8308 -116.3303 74° East 507 583 33,000  Level Los Angeles Center
07:56PM 34.8744 -116.1644 72° East 514 592 33,000  Level Los Angeles Center
07:57PM 34.9181 -116.0014 72° East 511 588 33,000  Level Los Angeles Center
07:58PM 34.9694 -115.8039 72° East 509 586 33,000  Level Los Angeles Center
07:59PM 35.0122 -115.6389 72° East 512 589 33,000  Level Los Angeles Center
08:00PM 35.0547 -115.4728 73° East 514 592 33,000  Level Los Angeles Center
08:01PM 35.0981 -115.3067 72° East 515 593 33,000  Level Los Angeles Center
08:02PM 35.1503 -115.1111 72° East 517 595 33,000  Level Los Angeles Center
08:03PM 35.2017 -114.9489 69° East 513 590 33,000  Level Los Angeles Center
08:04PM 35.2525 -114.7864 69° East 514 592 33,000 -48 Level Los Angeles Center
08:05PM 35.3019 -114.6247 69° East 510 587 32,900 -532 Descending Los Angeles Center
08:06PM 35.3483 -114.4667 70° East 498 573 31,900 -968 Descending Los Angeles Center
08:07PM 35.3833 -114.3058 75° East 496 571 30,900 -1,065 Descending Los Angeles Center
08:08PM 35.3556 -114.1025 99° East 505 581 29,700 -919 Descending Los Angeles Center
08:09PM 35.3167 -113.9386 106° East 502 578 29,000 -339 Descending Los Angeles Center
08:10PM 35.2769 -113.7681 106° East 500 575 29,000  Level Los Angeles Center
08:11PM 35.2381 -113.6069 106° East 497 572 29,000  Level Los Angeles Center
08:12PM 35.1992 -113.4450 106° East 500 575 29,000  Level Los Angeles Center
08:13PM 35.1494 -113.2869 111° Southeast 505 581 29,000  Level Los Angeles Center
08:14PM 35.1050 -113.2033 123° Southeast 498 573 29,000  Level Albuquerque Center
08:15PM 35.0156 -113.0864 133° Southeast 486 559 29,000 -194 Level Albuquerque Center
08:16PM 34.8972 -112.9614 139° Southeast 476 548 28,600 -927 Descending Albuquerque Center
08:17PM 34.7978 -112.8594 140° Southeast 474 545 27,100 -1,561 Descending Albuquerque Center
08:18PM 34.7008 -112.7592 140° Southeast 465 535 25,400 -1,597 Descending Albuquerque Center
08:19PM 34.6097 -112.6664 140° Southeast 440 506 23,800 -1,561 Descending Albuquerque Center
08:20PM 34.5197 -112.5742 140° Southeast 430 495 22,200 -1,512 Descending Albuquerque Center
08:21PM 34.4336 -112.4894 141° Southeast 413 475 20,700 -1,694 Descending Albuquerque Center
08:22PM 34.3325 -112.3861 140° Southeast 402 463 18,700 -1,805 Descending Albuquerque Center
08:23PM 34.2506 -112.3047 141° Southeast 393 452 17,000 -1,610 Descending Albuquerque Center
08:24PM 34.1733 -112.2244 139° Southeast 376 433 15,400 -1,452 Descending Albuquerque Center
08:25PM 34.1031 -112.1547 141° Southeast 352 405 14,000 -1,171 Descending Albuquerque Center
08:26PM 34.0331 -112.1239 160° South 302 348 13,000 -878 Descending Albuquerque Center
08:27PM 33.9578 -112.1042 168° South 287 330 12,200 -871 Descending Albuquerque Center
08:28PM 33.8703 -112.0808 168° South 274 315 11,200 -878 Descending Albuquerque Center
08:29PM 33.7981 -112.0631 168° South 268 308 10,400 -732 Descending Albuquerque Center
08:30PM 33.7275 -112.0469 169° South 264 304 9,700 -581 Descending Albuquerque Center
08:31PM 33.6678 -112.0367 172° South 228 262 9,200 -341 Descending Albuquerque Center
08:32PM 33.6083 -112.0269 172° South 217 250 9,000 -439 Descending Albuquerque Center
08:33PM 33.5519 -111.9994 158° South 221 254 8,300 -1,452 Descending Albuquerque Center
08:34PM 33.5278 -111.9128 108° East 256 295 6,000 -1,610 Descending Albuquerque Center
08:35PM 33.5278 -111.8300 90° East 257 296 5,000 -829 Descending Albuquerque Center
08:36PM 33.5014 -111.7892 128° Southeast 210 242 4,300 -871 Descending Albuquerque Center
08:37PM 33.4550 -111.7983 189° South 190 219 3,200 -585 Descending Albuquerque Center
08:38PM 33.4417 -111.8494 253° West 174 200 3,100 -341 Descending Albuquerque Center
08:39PM 33.4417 -111.9039 270° West 166 191 2,500 -634 Descending Albuquerque Center
08:40PM 33.4422 -111.9511 271° West 157 181 1,800 -488 Descending Albuquerque Center
08:42PM 33.4422 -111.9994 270° West 147 169 1,500 -290 Descending Albuquerque Center